Preview of NWS' New Version of Forecast
This preview is not operational and should not be used for support decisions.

Regional Weather Roundup (RWR)

Issued by National Weather Service (NWS)

                            
000
ASUS43 KDMX 181106
RWRIA 

WEATHER ROUNDUP FOR IOWA
NATIONAL WEATHER SERVICE DES MOINES IA
600 AM CDT TUE JUN 18 2019

NOTE: "FAIR" INDICATES FEW OR NO CLOUDS BELOW 12,000 FEET WITH NO
SIGNIFICANT WEATHER AND/OR OBSTRUCTIONS TO VISIBILITY.

* - THESE STATIONS ARE NOT NWS STATIONS...THUS NOT UNDER NWS
QUALITY CONTROL.  THEY ALSO DO NOT REPORT WEATHER SUCH 
AS PRECIPITATION OR FOG.  

IAZ001>003-012>014-020>022-031>034-043>046-181200-
   NORTHWEST IOWA
  
CITY           SKY/WX    TMP DP  RH WIND       PRES   REMARKS
CARROLL *      MOCLDY    64  63  94 MISG      29.97S                  
CHEROKEE *     RAIN      60  60 100 NE3       30.00S                  
DENISON *      CLOUDY    64  64 100 E3        29.99S                  
LE MARS *      DRIZZLE   63  61  94 E7        29.99R                  
SHELDON *      CLOUDY    63  61  94 E5        29.99R                  
SIOUX CITY     CLOUDY    65  63  93 E6        29.97S                  
SPENCER        CLOUDY    62  59  90 SE5       30.00S                  
STORM LAKE *   LGT RAIN  59  59 100 NE10      29.97R                  
$$
 
IAZ055>058-069>071-079>083-090>094-181200-
   SOUTHWEST IOWA
  
CITY           SKY/WX    TMP DP  RH WIND       PRES   REMARKS
ATLANTIC *     MOCLDY    64  64 100 NE5       29.96S                  
AUDUBON *      MOCLDY    64  63  94 CALM      29.99S FOG              
CLARINDA *     PTCLDY    63  63 100 CALM      29.97S                  
COUNCIL BLFS * CLOUDY    64  64 100 NE5       29.94S                  
CRESTON *      PTCLDY    61  59  94 CALM      29.97S FOG              
HARLAN  *      DRIZZLE   64  64 100 NE6       29.97S                  
LAMONI         PTCLDY    61  60  97 E6        29.95F FOG              
RED OAK *      CLOUDY    66  64  94 E5        29.95F                  
SHENANDOAH *   CLEAR     66  64  94 E3        29.94S                  
$$
 
IAZ047>049-059>061-072>074-084-181200-
   CENTRAL IOWA
  
CITY           SKY/WX    TMP DP  RH WIND       PRES   REMARKS
AMES           CLOUDY    65  64  97 SE5       29.96S FOG              
ANKENY *       CLOUDY    66  63  88 CALM      29.97S                  
BOONE *        CLOUDY    64  64 100 CALM      29.96S FOG              
CHARITON *     CLEAR     63  63 100 CALM      29.96R FOG              
DES MOINES     PTCLDY    66  61  84 CALM      29.96R                  
GRINNELL*      MOCLDY    61  60  95 CALM      29.98S FOG              
KNOXVILLE *    CLEAR     61  61 100 CALM      29.96S FOG              
MARSHALLTOWN   CLOUDY    64  64 100 S3        29.96S                  
NEWTON *       CLOUDY    63  63 100 E5        29.97S FOG              
PELLA *          N/A     61  59  94 CALM      29.98S FOG              
PERRY *        CLOUDY    66  66 100 CALM      29.97R FOG              
$$
 
IAZ004>006-015-016-023>025-035-036-181200-
   NORTH CENTRAL IOWA
  
CITY           SKY/WX    TMP DP  RH WIND       PRES   REMARKS
ALGONA *       DRIZZLE   59  59 100 NE6       29.99S                  
CLARION *      CLOUDY    64  64 100 CALM      29.98F FOG              
ESTHERVILLE    CLOUDY    60  57  89 CALM      29.99S                  
FORT DODGE *   CLOUDY    63  63 100 CALM      29.98F FOG              
MASON CITY     CLOUDY    63  63 100 NW6       29.99S FOG              
FOREST CITY *  HVY RAIN  61  61 100 CALM      29.99R                  
IOWA FALLS *   CLOUDY    66  65  97 E3        29.97S FOG              
$$

IAZ007>011-017>019-026>030-037>042-050>054-066-181200-
   NORTHEAST IOWA
  
CITY           SKY/WX    TMP DP  RH WIND       PRES   REMARKS
CEDAR RAPIDS   CLOUDY    59  59 100 E3        29.97S FOG              
CHARLES CITY * CLOUDY    64  64 100 CALM      29.97S FOG              
CLINTON *      FAIR      55  54  96 NE3       29.98F FOG              
DECORAH *      CLOUDY    63  63 100 CALM      29.96S FOG              
DUBUQUE        FAIR      58  57  97 SW3       29.97F FOG              
MONTICELLO *   CLOUDY    59  59 100 CALM      29.97F                  
OELWEIN *      CLOUDY    63  63 100 S5        29.98S                  
WATERLOO       CLOUDY    65  61  87 S6        29.96S                  
$$
 
IAZ064-065-067-068-078-181200-
   EAST CENTRAL IOWA
  
CITY           SKY/WX    TMP DP  RH WIND       PRES   REMARKS
DAVENPORT      CLOUDY    58  57  97 CALM      29.99S FOG              
IOWA CITY      FAIR      58  56  93 CALM      29.98S                  
MT. PLEASANT * CLEAR     57  57 100 CALM      29.97S FOG              
MUSCATINE *    FAIR      57  57 100 CALM      29.97F FOG              
QUAD CITIES    CLOUDY    59  57  93 CALM      29.97S FOG              
$$
 
IAZ062-063-075>077-085>089-095>099-181200-
   SOUTHEAST IOWA
  
CITY           SKY/WX    TMP DP  RH WIND       PRES   REMARKS
BURLINGTON     FOG       58  56  93 CALM      29.96R VSB 1/4          
FAIRFIELD *    FOG       55  55 100 E6        29.95F VSB 3/4          
FORT MADISON * CLOUDY    57  57 100 CALM      29.97R FOG              
KEOKUK *       CLOUDY    61  61 100 NE3       29.95S FOG              
OSKALOOSA *      N/A     59  57  94 E3        29.96F FOG              
CENTERVILLE *  FOG       55  55 100 CALM      29.97S VSB<1/4          
OTTUMWA        FOG       58  57  97 SE5       29.95F VSB 1            
WASHINGTON *   FOG       55  55 100 CALM      29.97F VSB<1/4          
$$

ABBREVIATIONS USED IN REMARKS
   TC - TEMPERATURES IN CELSIUS
  WCI - WIND CHILL INDEX
   HX - HEAT INDEX
  VSB - VISIBILITY  
$$